Regional Weather Roundup
Issued by NWS

Home | Current Version | Previous Version | Graphics & Text | Print | Product List | Glossary On
Versions: 1 2 3 4 5 6 7 8 9 10 11 12 13 14 15 16 17 18 19 20 21 22 23 24 25 26 27 28 29 30 31 32 33 34 35 36 37 38 39 40 41 42 43 44 45 46 47 48 49 50
000
ASUS45 KABQ 250910
RWRNM
NEW MEXICO REGIONAL WEATHER ROUNDUP
NATIONAL WEATHER SERVICE ALBUQUERQUE NM
300 AM MDT THU MAY 25 2017

NOTE: "FAIR" MEANS FEW OR NO CLOUDS BELOW 12,000 FEET AGL WITH NO
       SIGNIFICANT WEATHER OR OBSTRUCTIONS TO VISION.

      THIS PRODUCT IS RELEASED AS TWO VERSIONS.  ONE VERSION NEAR
      THE TOP OF THE HOUR CONTAINING PRELIMINARY DATA FROM ALBUQUERQUE
      AND OTHER STATIONS.  A FINAL VERSION WITH ADDITIONAL DATA IS
      ISSUED ABOUT 10 MINUTES AFTER THE HOUR.

NMZ501-503-504-510>518-251000-
NORTHWEST PLATEAU/NORTHCENTRAL MOUNTAINS

CITY           SKY/WX    TMP DP  RH WIND       PRES   REMARKS
FARMINGTON     FAIR      64  27  24 W6        29.75S
LOS ALAMOS     FAIR      65  21  19 W23G30    29.90S
SANTA FE       FAIR      59  23  25 CALM      29.84F
TAOS           FAIR      46  21  36 CALM      29.89S
ANGEL FIRE     FAIR      54  25  32 W10G17    29.94F

$$
NMZ402-403-502-505>509-251000-
WESTCENTRAL MOUNTAINS/SOUTHWEST MOUNTAINS

CITY           SKY/WX    TMP DP  RH WIND       PRES   REMARKS
GALLUP         FAIR      58  24  27 SW9       29.90F

$$
NMZ407-409-411-412-251000-
SOUTHERN DESERTS

CITY           SKY/WX    TMP DP  RH WIND       PRES   REMARKS
DEMING         FAIR      67  20  16 W12       29.85S
LAS CRUCES     FAIR      70  18  13 W18       29.83S
HOLLOMAN AFB   FAIR      65  18  16 E3        29.80S
T OR C         FAIR      71  19  14 CALM      29.81S

$$
NMZ519>523-251000-
CENTRAL VALLEYS/CENTRAL HIGHLANDS

CITY           SKY/WX    TMP DP  RH WIND       PRES   REMARKS
ALBUQUERQUE    FAIR      72  22  15 W10G21    29.81R
MORIARTY ARPT  FAIR      65  23  19 W15       29.87S
CLINES CORNERS FAIR      59  21  23 W21G26    29.91S
BELEN          NOT AVBL
SOCORRO        FAIR      78  20  11 W23G30    29.77F

$$
NMZ524>526-539-540-251000-
SOUTHCENTRAL MOUNTAINS

CITY           SKY/WX    TMP DP  RH WIND       PRES   REMARKS
RUIDOSO        NOT AVBL

$$
NMZ527>531-251000-
NORTHEAST HIGHLANDS/NORTHEAST PLAINS

CITY           SKY/WX    TMP DP  RH WIND       PRES   REMARKS
LAS VEGAS      FAIR      56  22  26 W9        29.85S
RATON          FAIR      50  33  52 NE7       29.76S
CLAYTON        FAIR      58  36  43 W12       29.64F

$$
NMZ532>537-251000-
EASTCENTRAL PLAINS

CITY           SKY/WX    TMP DP  RH WIND       PRES   REMARKS
TUCUMCARI      FAIR      60  41  49 W9        29.62R
CANNON AFB     FAIR      67  34  30 W13       29.69F
CLOVIS AIRPORT FAIR      57  36  44 W10       29.67F

$$
NMZ028-029-538-251000-
SOUTHEAST PLAINS

CITY           SKY/WX    TMP DP  RH WIND       PRES   REMARKS
ROSWELL        FAIR      76  19  11 W14       29.66R
CARLSBAD       FAIR      74  28  18 W15       29.66S


$$




USA.gov is the U.S. government's official web portal to all federal, state and local government web resources and services.